Regional Weather Roundup
Issued by NWS

Home | Current Version | Previous Version | Graphics & Text | Print | Product List | Glossary On
Versions: 1 2 3 4 5 6 7 8 9 10 11 12 13 14 15 16 17 18 19 20 21 22 23 24 25 26 27 28 29 30 31 32 33 34 35 36 37 38 39 40 41 42 43 44 45 46 47 48 49 50
000
ASUS43 KMPX 171401
RWRMN
WEATHER ROUNDUP FOR MINNESOTA
NATIONAL WEATHER SERVICE TWIN CITIES/CHANHASSEN MN
800 AM CST SUN DEC 17 2017


NOTE: "FAIR" INDICATES FEW OR NO CLOUDS BELOW 12,000 FEET WITH NO
SIGNIFICANT WEATHER AND/OR OBSTRUCTIONS TO VISIBILITY. N/A MEANS
CURRENT SKY AND/OR WEATHER CONDITIONS ARE NOT AVAILABLE.

MNZ060>063-068>070-171500-
   Twin Cities Metro

CITY           SKY/WX    TMP DP  RH WIND       PRES   REMARKS
TWIN CITIES    CLOUDY    23  22  96 NE3       30.09F FOG
ST PAUL        CLOUDY    23  22  96 CALM      30.11F FOG
CRYSTAL        CLOUDY    21  16  81 CALM      30.09S
BLAINE         CLOUDY    23  23 100 CALM      30.09F FOG
LAKEVILLE      FOG       19  19 100 CALM      30.08F VSB 1/2
EDEN PRAIRIE   CLOUDY    23  19  85 CALM      30.08F FOG
SOUTH ST PAUL  CLOUDY    23  23  98 CALM      30.09F FOG
LAKE ELMO      FOG       23  23 100 CALM      30.09F VSB 3/4
$$
MNZ001>005-007-008-013>017-022>024-027-028-171500-
   Northwest Minnesota

CITY           SKY/WX    TMP DP  RH WIND       PRES   REMARKS
BEMIDJI        CLOUDY    22  21  96 S6        30.02R FOG     WCI  14
HALLOCK        CLEAR     10   7  85 S7        29.96F WCI   0
ROSEAU         CLEAR     18  12  79 S6        29.96S FOG     WCI   9
WARROAD        CLOUDY    21  19  93 SW6       29.95F FOG     WCI  14
THIEF RVR FALL FOG       19  19 100 SW9       30.00S VSB 3/4 WCI   9
CROOKSTON      CLEAR     16  12  86 S3        30.03S
FOSSTON        PTCLDY    14  12  92 S6        30.02R WCI   5
DETROIT LAKES  CLOUDY    25  25 100 S3        30.05S FOG
MOORHEAD       CLOUDY    27  25  93 CALM      30.06R
PARK RAPIDS    CLOUDY    24  21  88 SW6       30.04R FOG     WCI  17
MAHNOMEN       FAIR      22  20  95 S7        30.02S WCI  13
$$
MNZ006-009>011-018-025>026-171500-
   North Central Minnesota

CITY           SKY/WX    TMP DP  RH WIND       PRES   REMARKS
BAUDETTE       CLOUDY    24  23  96 SW14      29.95F WCI  12
FLAG ISLAND    CLOUDY    19  18  93 S3        29.93F
INTL FALLS     CLOUDY    22  20  92 SW7       29.99S FOG     WCI  13
WASKISH        CLOUDY    21  21 100 SW3       30.00S
BIG FORK       CLOUDY    23  21  93 S8        30.02R FOG     WCI  14
LONGVILLE      CLOUDY    23  21  93 S6        30.05S FOG     WCI  16
GRAND RAPIDS   CLOUDY    21  20  96 S10       30.06S FOG     WCI  10
CRANE LAKE     CLOUDY    19  19 100 S8        30.04S WCI   9
ORR            CLOUDY   N/A N/A N/A S8          N/A
COOK           CLOUDY    19  19 100 S5        30.04S FOG     WCI  13
WALKER         CLOUDY    23  22  96 SW5       30.03R FOG     WCI  17
$$
MNZ012-019>021-037-171500-
   Northeast Minnesota

CITY           SKY/WX    TMP DP  RH WIND       PRES   REMARKS
DULUTH         CLOUDY    20  19  96 S3        30.06S FOG
ELY            CLOUDY    19  19 100 S6        30.04S WCI  11
HIBBING        CLOUDY    19  18  95 SE7       30.05S FOG     WCI  10
EVELETH        CLOUDY    20  17  87 S3        30.06R FOG
DULUTH HARBOR  CLOUDY    23  19  86 CALM      30.12S
TWO HARBORS    CLOUDY    25  19  80 CALM      30.06F
SILVER BAY     CLOUDY    21  19  93 CALM      30.07S
GRAND MARAIS     N/A     28  22  78 W5        30.09R WCI  23
G MARAIS ARPRT CLOUDY    19  18  93 S5        30.02S WCI  13
$$
MNZ029>031-032-039>041-046>048-054>057-064-171500-
   West Central Minnesota

CITY           SKY/WX    TMP DP  RH WIND       PRES   REMARKS
FERGUS FALLS   CLOUDY    25  25 100 CALM      30.08F FOG
WHEATON        CLOUDY    25  21  86 CALM      30.08S FOG
MORRIS         FOG       28  27  93 S7        30.06R VSB 1   WCI  21
ALEXANDRIA     CLOUDY    27  26  96 SE3       30.04F FOG
ELBOW LAKE     MOCLDY    24  24  99 CALM      30.05F FOG
WADENA         FOG       25  25 100 CALM      30.03F VSB 1
GLENWOOD       CLOUDY    27  27 100 SE7       30.06R FOG     WCI  19
APPLETON       CLOUDY    28  27  93 S5        30.08S FOG     WCI  23
BENSON         CLOUDY    28  27  93 S3        30.09S FOG
ORTONVILLE     CLOUDY    27  25  93 S7        30.07R FOG     WCI  19
MADISON        CLOUDY    30  30 100 S8        30.08S FOG     WCI  23
WILLMAR        CLOUDY    27  25  93 E5        30.10R WCI  21
$$
MNZ033>034-036-042>043-049>051-058-059-171500-
   Central Minnesota

CITY           SKY/WX    TMP DP  RH WIND       PRES   REMARKS
ST CLOUD       CLOUDY    20  17  88 E3        30.09S
SAUK CENTRE    CLOUDY    24  23  97 SE7       30.06S FOG     WCI  16
PAYNESVILLE    CLOUDY    24  24 100 E5        30.08S FOG     WCI  18
AITKIN         CLOUDY    21  19  93 CALM      30.05F FOG
PINE RIVER     CLOUDY    23  21  93 CALM      30.08F FOG
BRAINERD       CLOUDY    24  22  91 CALM      30.05F FOG
STAPLES        CLOUDY    25  25 100 CALM      30.04F FOG
LONG PRAIRIE   CLOUDY    25  23  93 E6        30.06S FOG     WCI  18
LITTLE FALLS   CLOUDY    23  21  93 SE5       30.08S FOG     WCI  17
LITCHFIELD     CLOUDY    23  19  86 CALM      30.09S
BUFFALO        CLOUDY    20  17  88 CALM      30.11S
MAPLE LAKE     CLOUDY    22  19  91 CALM      30.10S
HUTCHINSON     PTCLDY    23  21  90 CALM      30.10R
$$
MNZ037-044-045-052-053-171500-
   East Central Minnesota

CITY           SKY/WX    TMP DP  RH WIND       PRES   REMARKS
PRINCETON      CLOUDY    21  18  86 CALM      30.09S
MORA           CLOUDY    21  18  86 CALM      30.11S
CAMBRIDGE      CLOUDY    21  18  86 CALM      30.11S
RUSH CITY      CLOUDY    19  17  94 CALM      30.10F FOG
MOOSE LAKE     CLOUDY    21  18  86 CALM      30.06F
HINCKLEY       CLOUDY    21  19  93 CALM      30.09F
CLOQUET        CLOUDY    19  18  93 CALM      30.06S
MCGREGOR       CLOUDY    23  21  93 CALM      30.07S
$$
MNZ071>073-080-081-089-090-097-098-171500-
   Southwest Minnesota

CITY           SKY/WX    TMP DP  RH WIND       PRES   REMARKS
MONTEVIDEO     CLOUDY    27  27 100 S5        30.09R FOG     WCI  21
GRANITE FALLS  CLOUDY    27  25  95 E5        30.11R FOG     WCI  21
CANBY          CLOUDY    28  28  99 E6        30.09S FOG     WCI  22
MARSHALL       CLOUDY    25  23  92 E5        30.08S FOG     WCI  19
REDWOOD FALLS  CLOUDY    27  23  85 CALM      30.09S
OLIVIA         CLOUDY    27  23  86 E5        30.09R FOG     WCI  21
PIPESTONE      CLOUDY    25  23  93 NE6       30.03F FOG     WCI  18
WINDOM         HAZE      25  16  68 N6        30.04F VSB 1   WCI  18
WORTHINGTON    SNOW      24  23  96 N8        30.02F VSB 1/4 WCI  15
JACKSON        CLOUDY    25  23  93 NE6       30.03F FOG     WCI  18
SLAYTON        CLOUDY    25  24  98 N5        30.05F FOG     WCI  19
$$
MNZ065>067-074>077-082>085-091>093-171500-
   South Central Minnesota

CITY           SKY/WX    TMP DP  RH WIND       PRES   REMARKS
MANKATO        PTCLDY    21  18  88 N5        30.07F WCI  15
NEW ULM        CLOUDY    21  18  86 CALM      30.08F
ST JAMES       PTCLDY    21  19  93 N3        30.06F
FAIRMONT       CLOUDY    24  23  96 N8        30.05F FOG     WCI  15
GLENCOE        CLOUDY    23  24 100 CALM      30.09R
FARIBAULT      CLOUDY    23  21  93 CALM      30.07F FOG
OWATONNA       FOG       25  21  86 NE3       30.05F VSB 3/4
WASECA         FOG       23  21  93 NE3       30.07F VSB 1
$$
MNZ078>079-086>088-094>096-171500-
   Southeast Minnesota

CITY           SKY/WX    TMP DP  RH WIND       PRES   REMARKS
ROCHESTER      FOG       24  24 100 E7        30.05F VSB 1/2 WCI  16
RED WING       CLOUDY    25  21  86 E5        30.08F FOG     WCI  19
STANTON        CLOUDY    25  23  93 CALM      30.07S FOG
DODGE CENTER   FOG       25  23  93 NE6       30.04F VSB 3/4 WCI  18
WINONA         CLOUDY    30  28  93 E7        30.10F WCI  23
AUSTIN         FOG      N/A N/A N/A E5        30.05R VSB 3/4
PRESTON        FOG       25  23  95 NE3       30.06R VSB 1/4
$$
ABBREVIATIONS USED IN REMARKS
   TC - TEMPERATURES IN CELSIUS
  WCI - WIND CHILL INDEX
   HX - HEAT INDEX
  VSB - VISIBILITY
$$




USA.gov is the U.S. government's official web portal to all federal, state and local government web resources and services.